Weather History for Burnet, TX

Change the Weather History Date:

Thursday, September 13, 2012

  Actual Average Record
Temperature  
Mean Temperature 80 °F -  
Max Temperature 91 °F 87 °F 102 °F (2011)
Min Temperature 68 °F 67 °F 63 °F (2001)
Cooling Degree Days 15    
Growing Degree Days 30 (Base 50)    
Moisture  
Dew Point 69 °F    
Average Humidity 82    
Maximum Humidity 94    
Minimum Humidity 41    
Precipitation  
Precipitation 1.12 in - - ()
Sea Level Pressure  
Sea Level Pressure 30.09 in    
Wind  
Wind Speed 9 mph (ESE)    
Max Wind Speed 17 mph    
Max Gust Speed 30 mph    
Visibility 7 miles    
Events Rain , Thunderstorm    
Averages and records for this station are not official NWS values.
T = Trace of Precipitation, MM = Missing Value Source: NWS Daily Summary

Daily Weather History Graph

Daily Weather History Graph

Search for Another Location

Airport:

Trip Planner

Search our weather history database for the weather conditions in past years. The results will help you decide how hot, cold, wet, or windy it might be!

Date:

Astronomy

Sep. 13, 2012 Rise Set
Actual Time 7:16 AM CDT 7:40 PM CDT
Civil Twilight 6:52 AM CDT 8:04 PM CDT
Nautical Twilight 6:23 AM CDT 8:32 PM CDT
Astronomical Twilight 5:55 AM CDT 9:01 PM CDT
Moon 4:45 AM CDT (9/13) 5:58 PM CDT (9/13)
Length of Visible Light 13h 12m
Length of Day
12h 23m
Waning Crescent, 7% of the Moon is Illuminated
Sep 13
Waning Crescent
Sep 15
New
Sep 22
First Quarter
Sep 29
Full
Oct 8
Last Quarter

Hourly Weather History & Observations

Time (CDT) Temp. Heat Index Dew Point Humidity Pressure Visibility Wind Dir Wind Speed Gust Speed Precip Events Conditions
12:53 AM 80.1 °F 83.2 °F 70.0 °F 71% 30.01 in 10.0 mi SSE 6.9 mph 17.3 mph N/A   Clear
1:53 AM 78.1 °F - 70.0 °F 76% 30.01 in 10.0 mi SSE 8.1 mph 17.3 mph N/A   Clear
2:15 AM 78.1 °F - 71.1 °F 79% 30.06 in 10.0 mi South 6.9 mph 17.3 mph N/A   Mostly Cloudy
2:53 AM 78.1 °F - 71.1 °F 79% 30.00 in 10.0 mi SSE 9.2 mph 19.6 mph N/A   Mostly Cloudy
3:53 AM 78.1 °F - 71.1 °F 79% 29.99 in 10.0 mi SSE 9.2 mph - N/A   Mostly Cloudy
4:30 AM 77.0 °F - 71.1 °F 82% 30.05 in 10.0 mi South 9.2 mph - N/A   Scattered Clouds
4:53 AM 77.0 °F - 71.1 °F 82% 29.99 in 10.0 mi South 8.1 mph - N/A   Scattered Clouds
5:02 AM 77.0 °F - 71.1 °F 82% 30.05 in 10.0 mi South 6.9 mph - N/A   Mostly Cloudy
5:53 AM 77.0 °F - 71.1 °F 82% 30.01 in 10.0 mi South 6.9 mph - N/A   Overcast
6:34 AM 77.0 °F - 71.1 °F 82% 30.08 in 10.0 mi South 6.9 mph - N/A   Overcast
6:53 AM 75.9 °F - 71.1 °F 85% 30.01 in 10.0 mi South 5.8 mph - N/A   Overcast
7:26 AM 75.9 °F - 71.1 °F 85% 30.08 in 9.0 mi SSE 4.6 mph - N/A   Partly Cloudy
7:53 AM 75.9 °F - 72.0 °F 87% 30.03 in 9.0 mi South 4.6 mph - N/A   Scattered Clouds
8:05 AM 75.9 °F - 72.0 °F 87% 30.09 in 9.0 mi SSE 5.8 mph - N/A   Mostly Cloudy
8:14 AM 75.9 °F - 72.0 °F 87% 30.09 in 9.0 mi SSE 4.6 mph - N/A   Mostly Cloudy
8:17 AM 75.9 °F - 72.0 °F 87% 30.09 in 9.0 mi Variable 5.8 mph - N/A   Mostly Cloudy
8:41 AM 78.1 °F - 72.0 °F 81% 30.10 in 9.0 mi South 9.2 mph - N/A   Mostly Cloudy
8:48 AM 78.8 °F - 71.6 °F 78% 30.10 in 10.0 mi South 8.1 mph - N/A   Mostly Cloudy
8:53 AM 78.1 °F - 72.0 °F 81% 30.05 in 10.0 mi South 9.2 mph - N/A   Mostly Cloudy
9:15 AM 79.0 °F - 71.1 °F 77% 30.11 in 10.0 mi South 8.1 mph 17.3 mph N/A   Mostly Cloudy
9:53 AM 82.0 °F 85.9 °F 70.0 °F 67% 30.06 in 10.0 mi South 8.1 mph - N/A   Mostly Cloudy
10:35 AM 84.0 °F 87.8 °F 69.1 °F 61% 30.13 in 10.0 mi South 8.1 mph - N/A   Scattered Clouds
10:53 AM 82.9 °F 85.8 °F 68.0 °F 60% 30.08 in 10.0 mi SSW 9.2 mph - N/A   Mostly Cloudy
11:53 AM 86.0 °F 88.2 °F 66.0 °F 51% 30.07 in 10.0 mi South 9.2 mph - N/A   Mostly Cloudy
12:53 PM 91.0 °F 92.6 °F 64.0 °F 41% 30.02 in 10.0 mi SSE 5.8 mph - 0.00 in   Scattered Clouds
1:37 PM 82.0 °F 85.5 °F 69.1 °F 65% 30.08 in 7.0 mi SE 8.1 mph - 0.00 in Rain , Thunderstorm Light Rain
1:50 PM 75.2 °F - 69.8 °F 83% 30.09 in 2.0 mi South 13.8 mph 23.0 mph 0.03 in Rain , Thunderstorm Rain
1:53 PM 75.0 °F - 70.0 °F 84% 30.04 in 1.0 mi SSE 15.0 mph 24.2 mph 0.06 in Rain , Thunderstorm Heavy Rain
1:59 PM 73.9 °F - 69.1 °F 85% 30.10 in 0.2 mi SE 11.5 mph 24.2 mph 0.28 in Rain , Thunderstorm Heavy Rain
2:04 PM 73.9 °F - 68.0 °F 82% 30.11 in 0.5 mi Variable 4.6 mph - 0.36 in Rain , Thunderstorm Heavy Thunderstorms and Rain
2:10 PM 73.9 °F - 70.0 °F 87% 30.11 in 1.5 mi North 13.8 mph 19.6 mph 0.37 in Rain , Thunderstorm Light Thunderstorms and Rain
2:12 PM 73.9 °F - 70.0 °F 87% 30.11 in 3.0 mi North 13.8 mph 19.6 mph 0.37 in Rain , Thunderstorm Light Thunderstorms and Rain
2:42 PM 71.1 °F - 68.0 °F 90% 30.10 in 2.0 mi North 11.5 mph - 0.40 in Rain , Thunderstorm Heavy Rain
2:50 PM 71.6 °F - 68.0 °F 88% 30.10 in 1.5 mi NNE 15.0 mph 23.0 mph 0.44 in Rain , Thunderstorm Heavy Rain
2:53 PM 71.1 °F - 68.0 °F 90% 30.05 in 1.8 mi North 15.0 mph 23.0 mph 0.45 in Rain , Thunderstorm Heavy Rain
3:00 PM 71.1 °F - 68.0 °F 90% 30.09 in 2.5 mi NNE 17.3 mph 28.8 mph 0.01 in Rain , Thunderstorm Rain
3:09 PM 71.1 °F - 68.0 °F 90% 30.10 in 5.0 mi NNE 15.0 mph 29.9 mph 0.01 in Rain , Thunderstorm Light Rain
3:34 PM 71.1 °F - 68.0 °F 90% 30.10 in 10.0 mi NNE 17.3 mph 25.3 mph 0.01 in Thunderstorm Overcast
3:53 PM 70.0 °F - 66.9 °F 90% 30.08 in 10.0 mi ENE 10.4 mph 21.9 mph 0.01 in Rain , Thunderstorm Light Thunderstorms and Rain
4:08 PM 70.0 °F - 66.9 °F 90% 30.13 in 1.8 mi NE 10.4 mph - 0.08 in Rain , Thunderstorm Heavy Thunderstorms and Rain
4:11 PM 70.0 °F - 66.9 °F 90% 30.12 in 1.2 mi NE 10.4 mph - 0.12 in Rain , Thunderstorm Heavy Rain
4:27 PM 69.1 °F - 66.9 °F 93% 30.12 in 1.8 mi NE 13.8 mph - 0.19 in Rain , Thunderstorm Rain
4:34 PM 70.0 °F - 66.9 °F 90% 30.13 in 2.0 mi NE 8.1 mph - 0.22 in Rain Heavy Rain
4:51 PM 69.8 °F - 68.0 °F 94% 30.14 in 2.5 mi NE 10.4 mph - 0.27 in Rain , Thunderstorm Rain
4:53 PM 70.0 °F - 68.0 °F 93% 30.10 in 2.5 mi NE 10.4 mph - 0.28 in Rain , Thunderstorm Rain
5:10 PM 70.0 °F - 68.0 °F 93% 30.15 in 1.8 mi NE 6.9 mph - 0.05 in Rain Heavy Rain
5:39 PM - - - N/A% 30.14 in 2.0 mi NE 10.4 mph - 0.22 in Rain Heavy Rain
5:46 PM - - - N/A% 30.14 in 1.8 mi NE 9.2 mph - 0.25 in Rain Heavy Rain
5:53 PM - - - N/A% 30.14 in 2.5 mi North - - 0.28 in Rain Rain
6:18 PM - - - N/A% 30.15 in 4.0 mi North - - 0.07 in Rain Rain
6:31 PM - - - N/A% 30.15 in 5.0 mi North - - 0.08 in Rain Light Rain
6:43 PM - - - N/A% 30.15 in 4.0 mi North - - 0.09 in Rain Rain
7:53 PM - - - N/A% 30.15 in 7.0 mi North 10.4 mph - 0.03 in Rain Light Rain
8:53 PM - - - N/A% 30.19 in 10.0 mi NW 4.6 mph - 0.01 in Rain Light Rain
9:53 PM 70.0 °F - 68.0 °F 93% 30.14 in 10.0 mi NNE 6.9 mph - 0.00 in Rain Light Rain
10:53 PM 70.0 °F - 66.9 °F 90% 30.14 in 10.0 mi North 9.2 mph - 0.00 in   Overcast
11:06 PM 70.0 °F - 66.9 °F 90% 30.18 in 10.0 mi North 9.2 mph - N/A   Overcast
11:14 PM 70.0 °F - 66.9 °F 90% 30.18 in 10.0 mi North 8.1 mph - N/A   Overcast
11:53 PM 68.0 °F - 64.9 °F 90% 30.15 in 10.0 mi North 9.2 mph - N/A   Overcast